FW5198 Weather Reports


Display with metric or nautical units.
time (UTC)temp
F
wind
direction
speed
MPH
gust
MPH
rain 1hr
in
rain 24hr
in
rain mn
in
humidity
%
barometer
mb
20260507141552 56 321 1.0 4.0 0.00 0.06 0.00 68 1017.1
20260507140108 56 109 1.0 5.0 0.00 0.06 0.00 72 1017.0
20260507134543 55 184 1.0 3.0 0.00 0.06 0.00 73 1017.0
20260507133048 53 244 0.0 3.0 0.00 0.06 0.00 77 1016.7
20260507131539 52 113 0.0 3.0 0.00 0.06 0.00 81 1016.6
20260507130052 51 240 0.0 2.0 0.00 0.06 0.00 82 1016.6
20260507124552 50 115 0.0 4.0 0.00 0.19 0.00 86 1016.4
20260507123052 49 0 0.0 1.0 0.00 0.19 0.00 88 1016.3
20260507121546 49 101 0.0 2.0 0.00 0.19 0.00 89 1016.3
20260507120047 48 72 0.0 1.0 0.00 0.19 0.00 90 1016.2
20260507114546 48 0 0.0 1.0 0.00 0.21 0.00 90 1016.0
20260507113042 47 122 0.0 2.0 0.00 0.21 0.00 91 1015.9
20260507111544 47 0 0.0 3.0 0.00 0.21 0.00 92 1015.7
20260507110047 47 0 0.0 1.0 0.00 0.21 0.00 93 1015.4
20260507104547 47 0 0.0 3.0 0.00 0.21 0.00 93 1015.2
20260507103043 47 0 0.0 3.0 0.00 0.21 0.00 93 1015.1
20260507101546 47 109 0.0 4.0 0.00 0.21 0.00 93 1015.1
20260507100038 48 0 0.0 1.0 0.00 0.21 0.00 93 1015.1
20260507094546 48 0 0.0 1.0 0.00 0.21 0.00 93 1015.1
20260507093046 48 0 0.0 2.0 0.00 0.21 0.00 93 1015.1
20260507091544 49 0 0.0 3.0 0.00 0.21 0.00 93 1015.0
20260507090043 49 0 0.0 0.0 0.00 0.21 0.00 93 1015.0
20260507084541 49 0 0.0 1.0 0.00 0.40 0.00 93 1015.0
20260507083047 50 0 0.0 1.0 0.00 0.40 0.00 94 1015.0
20260507081538 50 0 0.0 0.0 0.00 0.40 0.00 94 1015.1
20260507074545 50 0 0.0 0.0 0.00 0.58 0.00 94 1014.6
20260507073040 50 0 0.0 1.0 0.00 0.58 0.00 94 1014.6
20260507071554 50 0 0.0 0.0 0.00 0.58 0.00 96 1014.7
20260507070042 50 0 0.0 0.0 0.00 0.58 0.00 96 1015.0
20260507064546 50 0 0.0 0.0 0.00 0.58 0.00 97 1015.1
20260507063040 50 0 0.0 1.0 0.00 0.58 0.00 97 1015.1
20260507061538 50 0 0.0 1.0 0.00 0.58 0.00 97 1015.2
20260507060039 50 0 0.0 0.0 0.00 0.58 0.00 98 1015.2
20260507054550 50 0 0.0 1.0 0.00 0.58 0.00 98 1015.3
20260507053048 50 0 0.0 0.0 0.00 0.58 0.00 98 1015.2
20260507051540 51 0 0.0 0.0 0.00 0.58 0.00 98 1015.2
20260507050039 51 0 0.0 0.0 0.00 0.58 0.00 98 1015.3
20260507044539 51 0 0.0 1.0 0.00 0.58 0.58 98 1015.6
20260507043040 51 0 0.0 0.0 0.00 0.58 0.58 98 1015.5
20260507041539 51 0 0.0 1.0 0.00 0.58 0.58 98 1015.9
20260507040053 51 0 0.0 0.0 0.00 0.58 0.58 98 1015.5
20260507034540 51 0 0.0 0.0 0.01 0.58 0.58 98 1015.2
20260507033042 51 0 0.0 0.0 0.01 0.58 0.58 98 1015.6
20260507031538 51 0 0.0 0.0 0.01 0.58 0.58 97 1015.4
20260507030040 51 0 0.0 1.0 0.01 0.58 0.58 97 1015.2
20260507024542 51 0 0.0 1.0 0.00 0.58 0.58 97 1015.1
20260507023040 51 0 0.0 1.0 0.00 0.58 0.58 97 1014.6
20260507021541 52 0 0.0 1.0 0.00 0.58 0.58 97 1014.8
20260507020037 52 0 0.0 0.0 0.02 0.58 0.58 97 1014.9
20260507014552 52 0 0.0 1.0 0.02 0.58 0.58 96 1015.0
20260507013040 52 0 0.0 1.0 0.03 0.58 0.58 96 1015.3
20260507011541 52 0 0.0 1.0 0.03 0.58 0.58 95 1015.2
20260507010043 52 0 0.0 2.0 0.01 0.57 0.56 95 1015.7
20260507004539 53 93 0.0 3.0 0.01 0.57 0.56 95 1015.6
20260507003036 53 0 0.0 2.0 0.00 0.56 0.55 95 1014.5
20260507001547 53 102 0.0 1.0 0.00 0.56 0.55 96 1014.3
20260507000042 53 0 0.0 2.0 0.00 0.56 0.55 95 1013.4
20260506234545 54 0 0.0 1.0 0.00 0.58 0.55 95 1012.9
20260506233039 54 99 0.0 1.0 0.01 0.58 0.55 95 1013.2
20260506231544 54 0 0.0 1.0 0.02 0.58 0.55 95 1013.8
20260506230051 54 0 0.0 3.0 0.02 0.58 0.55 95 1014.4
20260506224545 55 0 0.0 0.0 0.02 0.58 0.55 95 1014.3
20260506223045 55 0 0.0 1.0 0.01 0.58 0.54 93 1014.9
20260506221535 55 103 0.0 1.0 0.00 0.57 0.52 92 1014.1
20260506220054 55 0 0.0 4.0 0.00 0.57 0.52 91 1014.3
20260506214539 55 60 0.0 1.0 0.00 0.61 0.52 92 1014.0
20260506213035 55 0 0.0 3.0 0.00 0.61 0.52 92 1014.5
20260506211537 56 89 0.0 2.0 0.00 0.61 0.52 91 1014.5
20260506210042 55 0 0.0 3.0 0.00 0.61 0.52 92 1014.0
20260506204541 55 101 0.0 2.0 0.00 0.61 0.52 94 1013.7
20260506203113 55 252 0.0 3.0 0.00 0.61 0.52 94 1014.2
20260506201538 55 0 0.0 1.0 0.00 0.61 0.52 94 1014.4
20260506200046 54 0 0.0 1.0 0.00 0.61 0.52 93 1014.3
20260506194537 55 105 1.0 6.0 0.00 0.61 0.52 91 1014.4
20260506193039 54 0 0.0 2.0 0.00 0.61 0.52 93 1014.0
20260506191539 54 0 1.0 5.0 0.00 0.61 0.52 94 1014.2
20260506190045 53 110 0.0 2.0 0.00 0.61 0.52 98 1013.2
20260506184553 52 0 0.0 6.0 0.00 0.61 0.52 97 1014.3
20260506183037 52 250 0.0 1.0 0.00 0.61 0.52 97 1013.8
20260506181539 52 0 0.0 2.0 0.00 0.61 0.52 97 1015.1
20260506180047 52 103 0.0 1.0 0.00 0.61 0.52 97 1014.7
20260506174544 52 103 0.0 2.0 0.00 0.61 0.52 96 1014.7
20260506173052 52 0 0.0 2.0 0.00 0.61 0.52 96 1014.4
20260506171540 52 115 0.0 2.0 0.00 0.61 0.52 97 1013.7
20260506170048 52 116 0.0 2.0 0.00 0.61 0.52 97 1013.6
20260506164548 52 120 0.0 4.0 0.00 0.61 0.52 98 1013.4
20260506163138 52 0 0.0 1.0 0.00 0.61 0.52 98 1013.6
20260506161542 52 108 0.0 4.0 0.00 0.61 0.52 98 1013.6
20260506160043 52 0 0.0 1.0 0.00 0.61 0.52 98 1013.8
20260506154547 52 85 0.0 5.0 0.00 0.61 0.52 98 1014.0
20260506153044 51 97 0.0 2.0 0.00 0.61 0.52 98 1014.0
20260506151545 51 0 0.0 4.0 0.00 0.61 0.52 98 1014.1
20260506150043 51 148 0.0 1.0 0.00 0.61 0.52 98 1013.8
20260506144545 51 0 0.0 3.0 0.00 0.61 0.52 98 1013.6
20260506143039 51 136 0.0 6.0 0.00 0.61 0.52 98 1013.1